Regional Weather Roundup
Issued by NWS

Home | Current Version | Previous Version | Graphics & Text | Print | Product List | Glossary Off
Versions: 1 2 3 4 5 6 7 8 9 10 11 12 13 14 15 16 17 18 19 20 21 22 23 24 25 26 27 28 29 30 31 32 33 34 35 36 37 38 39 40 41 42 43 44 45 46 47 48 49 50

000
ASUS43 KMKX 231021
RWRWI

WISCONSIN REGIONAL WEATHER ROUNDUP
NATIONAL WEATHER SERVICE MILWAUKEE/SULLIVAN WI
400 AM CST THU FEB 23 2017

NOTE: "FAIR" INDICATES FEW OR NO CLOUDS BELOW 12,000 FEET WITH NO
SIGNIFICANT WEATHER AND/OR OBSTRUCTIONS TO VISIBILITY.

WIZ001-002-006>008-014>016-023>028-231100-
NORTHWEST WISCONSIN

CITY           SKY/WX    TMP DP  RH WIND       PRES   REMARKS
SUPERIOR ARPT  PTCLDY    31  26  82 N5        29.88R WCI  26
ASHLAND        CLOUDY    32  30  92 NW6       29.84S WCI  26
HAYWARD        CLOUDY    33  31  92 N3        29.82R
SIREN          CLOUDY    32  28  84 N8        29.86S WCI  25
CUMBERLAND     LGT SNOW  32  30  93 N10       29.82S WCI  24
RICE LAKE      CLOUDY    34  32  91 N8        29.83F WCI  28
CHETEK         CLOUDY    34  32  92 N8        29.81F WCI  27
LADYSMITH      CLOUDY    34  32  92 N10       29.82R FOG     WCI  26
EAU CLAIRE     CLOUDY    37  32  82 N9        29.79R WCI  30
MENOMONIE      CLOUDY    37  32  83 N12       29.81S WCI  29
NEW RICHMOND   CLOUDY    34  31  90 N14G20    29.83F WCI  24
OSCEOLA        CLOUDY    34  29  83 N12       29.87F WCI  25
$$

WIZ003>005-009-010-017-018-231100-
NORTH CENTRAL WISCONSIN

CITY           SKY/WX    TMP DP  RH WIND       PRES   REMARKS
MANITOWISH WTR CLOUDY    30  30 100 N7        29.76R WCI  23
ARBOR VITAE    CLOUDY    32  30  94 N12         N/A  WCI  23
WOODRUFF       CLOUDY    32  30  94 N12         N/A  WCI  23
RHINELANDER    CLOUDY    33  30  88 NW6G17    29.75R WCI  28
EAGLE RIVER    CLOUDY    31  29  94 N8G17     29.74R WCI  23
LAND O LAKES   CLOUDY    31  29  94 N12       29.75R WCI  21
PHILLIPS       CLOUDY    32  31  96 N5        29.78R WCI  27
TOMAHAWK       CLOUDY    32  30  91 NW7       29.76R WCI  26
MEDFORD        CLOUDY    33  30  88 N15       29.74R WCI  23
MERRILL        NOT AVBL
$$

WIZ029-030-035-036-043>047-231100-
CENTRAL WISCONSIN

CITY           SKY/WX    TMP DP  RH WIND       PRES   REMARKS
WAUSAU         CLOUDY    36  31  82 N14G21    29.71R WCI  27
MOSINEE        CLOUDY    36  34  93 N15G21    29.72R WCI  26
MARSHFIELD     MOCLDY    36  30  79 N10       29.73R WCI  28
STEVENS POINT  CLOUDY    36  35  93 N14       29.71R WCI  27
WAUPACA        CLOUDY    44  40  87 NW10G16   29.69R
WAUTOMA        CLOUDY    43  39  87 NW16G23   29.69R
WISC RAPIDS    CLOUDY    40  36  86 N12G21    29.72R WCI  33
CAMP DOUGLAS   CLOUDY    39  34  81 NW13      29.75R WCI  32
$$

WIZ011>013-019>022-031-037>040-048>050-231100-
NORTHEAST WISCONSIN

CITY           SKY/WX    TMP DP  RH WIND       PRES   REMARKS
ANTIGO         CLOUDY    33  32  94 N13       29.71R WCI  24
SHAWANO        CLOUDY    41  37  88 N5        29.70R
OCONTO         CLOUDY    38  34  83 N7        29.67R WCI  33
STURGEON BAY   CLOUDY    37  34  89 N10       29.66R WCI  30
GREEN BAY      CLOUDY    39  39 100 N6        29.67R FOG     WCI  35
MANITOWOC      LGT RAIN  39  37  93 N7        29.67R VSB 1   WCI  34
APPLETON       CLOUDY    39  36  87 N7        29.64R WCI  34
CLINTONVILLE   CLOUDY    37  36  93 CALM      29.69R
OSHKOSH        CLOUDY    45  40  82 NW13G23   29.65R
$$

WIZ032>034-041-042-053>061-231100-
SOUTHWEST WISCONSIN

CITY           SKY/WX    TMP DP  RH WIND       PRES   REMARKS
LA CROSSE      CLOUDY    42  35  76 N18       29.77R
SPARTA         CLOUDY    40  36  83 N14       29.76R WCI  33
VIROQUA        CLOUDY    40  37  89 W6        29.75R
BOSCOBEL       MOCLDY    46  38  73 NW7       29.75R
PRAIRIE DU CHI PTCLDY    42  36  78 NW3       29.75S
PLATTEVILLE    PTCLDY    41  41  98 W5        29.74R
$$

WIZ056-057-062-063-064-067-068-231100-
SOUTH CENTRAL WISCONSIN

CITY           SKY/WX    TMP DP  RH WIND       PRES   REMARKS
REEDSBURG      CLOUDY    45  39  80 NW9G17    29.72R
BARABOO/DELLS  MOCLDY    46  37  73 NW8G17    29.71R
LONE ROCK      MOCLDY    47  39  74 NW10      29.74R
MINERAL POINT  CLOUDY    45  43  93 NW8       29.72S
MADISON        MOCLDY    45  40  82 VRB5      29.71R
MIDDLETON      MOCLDY    46  41  83 W8        29.72R
WATERTOWN      PTCLDY    46  42  87 W7        29.69R
MONROE         PTCLDY    45  41  87 NW10G17   29.70S
JANESVILLE     CLEAR     45  43  93 NW8       29.70R
$$

WIZ051-052-058>065-066-070>072-231100-
SOUTHEAST WISCONSIN

CITY           SKY/WX    TMP DP  RH WIND       PRES   REMARKS
MILWAUKEE      CLEAR     51  42  71 W14       29.66R
WAUKESHA       PTCLDY    45  39  81 W17G26    29.68R
MILWAUKEE/TIMM CLEAR     46  37  71 W22G28    29.67R
RACINE         CLEAR     50  42  74 W8        29.67R
KENOSHA        CLEAR     48  42  80 W9        29.66R
FOND DU LAC    MOCLDY    46  39  76 NW14      29.66R
SHEBOYGAN      MOCLDY    45  39  79 NW10      29.65R
WEST BEND      MOCLDY    45  41  87 W13G21    29.65R
JUNEAU         PTCLDY    44  39  85 W6        29.69R
$$

LSZ147-162-231100-
LAKE SUPERIOR

STATION/POSITION TIME  TEMP    WIND        PRES    WAVE
                       AIR SEA DIR/SP/G            HT/PER
                 (UTC) (F)     (DEG/KT/KT) (MB)    (FT/S)
DEVILS ISLAND    1000   32     350/ 13/ 14 1011.6R
PORT WING        0940   33     350/ 13/ 15 1011.5R
SAXON HARBOR     0940   33     320/  8/ 10 1010.2R
$$

LMZ867-665-643>646-231100-
LAKE MICHIGAN

STATION/POSITION TIME  TEMP    WIND        PRES    WAVE
                       AIR SEA DIR/SP/G            HT/PER
                 (UTC) (F)     (DEG/KT/KT) (MB)    (FT/S)
CHAMBERS ISLAND  0940   35     320/  9/ 10 1004.1R
NORTHPORT PIER   0940   35     310/ 12/ 15 1004.1R
SISTER BAY       0905   35     340/ 12/ 15   N/A
KEWAUNEE LAKESHO 0954   38     340/  2/  6 1004.0R
SHEBOYGAN LAKESH 1000   47     300/ 11/ 13 1004.1R
PORT WASHINGTON  1000   48     290/  8/ 19 1005.1
MILWAUKEE LAKESH 1000   51     310/ 12/ 15   N/A
KENOSHA   LAKESH 1000   50     290/ 12/ 15 1004.4
$$

TC  - TEMPERATURE IN CELSIUS
VSB - VISIBILITY IN STATUTE MILES
WCI - WIND CHILL INDEX
HX  - HEAT INDEX





USA.gov is the U.S. government's official web portal to all federal, state and local government web resources and services.